When you browse on this site, cookies collect data to enhance your experience and personalize the content and advertising you see.
Visit our Privacy Policy to learn more. By continuing to use the site, you agree to this use of cookies and data.
  • In Sweden
  • List of Countries
  • For 7 days
  • Water Temperature
  • Weather Map
  • Weather Widgets
  • user-avatar
    Login

    Hourly Weather Spring

    Today, 13 December, Friday

    Time Temperature Precipitation Wind Pressure Humidity
    00:00 +14°C° 0 mm 1 mps 761 mmHg 78%
    01:00 +14°C° 0 mm 1 mps 760 mmHg 78%
    02:00 +14°C° 0 mm 1 mps 760 mmHg 78%
    03:00 +14°C° 0 mm 1 mps 759 mmHg 78%
    04:00 +14°C° 0 mm 1 mps 759 mmHg 80%
    05:00 +14°C° 0 mm 1 mps 758 mmHg 82%
    06:00 +14°C° 0 mm 1 mps 758 mmHg 84%
    07:00 +14°C° 0 mm 1 mps 758 mmHg 84%
    08:00 +15°C° 0 mm 2 mps 758 mmHg 83%
    09:00 +16°C° 0 mm 2 mps 758 mmHg 83%
    10:00 +17°C° 0 mm 3 mps 758 mmHg 76%
    11:00 +19°C° 0 mm 3 mps 757 mmHg 68%
    12:00 +20°C° 0 mm 4 mps 757 mmHg 60%
    13:00 +21°C° 0 mm 4 mps 756 mmHg 57%
    14:00 +21°C° 0 mm 4 mps 755 mmHg 54%
    15:00 +22°C° 0 mm 4 mps 754 mmHg 50%
    16:00 +21°C° 0 mm 3 mps 754 mmHg 52%
    17:00 +20°C° 0 mm 2 mps 755 mmHg 55%
    18:00 +20°C° 0 mm 1 mps 755 mmHg 57%
    19:00 +19°C° 0 mm 1 mps 755 mmHg 57%
    20:00 +18°C° 0 mm 1 mps 755 mmHg 58%
    21:00 +18°C° 0 mm 1 mps 756 mmHg 58%
    22:00 +16°C° 0 mm 1 mps 756 mmHg 60%
    23:00 +15°C° 0 mm 1 mps 756 mmHg 61%

    Tomorrow, 14 December, Saturday

    Time Temperature Precipitation Wind Pressure Humidity
    00:00 +15°C° 0 mm 1 mps 756 mmHg 63%
    01:00 +14°C° 0 mm 1 mps 756 mmHg 64%
    02:00 +14°C° 0 mm 1 mps 756 mmHg 66%
    03:00 +14°C° 0 mm 1 mps 755 mmHg 67%
    04:00 +14°C° 0 mm 1 mps 755 mmHg 67%
    05:00 +13°C° 0 mm 1 mps 756 mmHg 68%
    06:00 +13°C° 0 mm 1 mps 756 mmHg 69%
    07:00 +14°C° 0 mm 1 mps 756 mmHg 66%
    08:00 +14°C° 0 mm 1 mps 756 mmHg 63%
    09:00 +15°C° 0 mm 1 mps 757 mmHg 61%
    10:00 +18°C° 0 mm 1 mps 756 mmHg 54%
    11:00 +20°C° 0 mm 1 mps 756 mmHg 48%
    12:00 +21°C° 0 mm 1 mps 756 mmHg 42%
    13:00 +22°C° 0 mm 1 mps 755 mmHg 40%
    14:00 +23°C° 0 mm 2 mps 755 mmHg 39%
    15:00 +24°C° 0 mm 2 mps 754 mmHg 37%
    16:00 +21°C° 0 mm 2 mps 754 mmHg 43%
    17:00 +20°C° 0 mm 2 mps 754 mmHg 48%
    18:00 +19°C° 0 mm 2 mps 754 mmHg 54%
    19:00 +18°C° 0 mm 2 mps 755 mmHg 58%
    20:00 +17°C° 0 mm 2 mps 755 mmHg 62%
    21:00 +17°C° 0 mm 2 mps 755 mmHg 67%
    22:00 +17°C° 0 mm 2 mps 755 mmHg 71%
    23:00 +16°C° 0 mm 2 mps 755 mmHg 76%

    Day after tomorrow, 15 December, Sunday

    Time Temperature Precipitation Wind Pressure Humidity
    00:00 +16°C° 0 mm 2 mps 755 mmHg 81%
    01:00 +16°C° 0 mm 2 mps 755 mmHg 85%
    02:00 +16°C° 0 mm 2 mps 754 mmHg 90%
    03:00 +16°C° 0 mm 2 mps 754 mmHg 95%
    04:00 +17°C° 0 mm 2 mps 754 mmHg 96%
    05:00 +17°C° 0 mm 2 mps 754 mmHg 97%
    06:00 +18°C° 0 mm 2 mps 755 mmHg 98%
    07:00 +19°C° 0 mm 3 mps 755 mmHg 96%
    08:00 +20°C° 0 mm 4 mps 755 mmHg 94%
    09:00 +21°C° 0 mm 4 mps 755 mmHg 91%
    10:00 +22°C° 0 mm 4 mps 755 mmHg 85%
    11:00 +23°C° 0 mm 5 mps 755 mmHg 79%
    12:00 +25°C° 0 mm 5 mps 755 mmHg 73%
    13:00 +25°C° 0 mm 5 mps 754 mmHg 72%
    14:00 +25°C° 0 mm 5 mps 754 mmHg 72%
    15:00 +26°C° 0 mm 5 mps 753 mmHg 71%
    16:00 +25°C° 0 mm 5 mps 753 mmHg 73%
    17:00 +25°C° 0 mm 4 mps 753 mmHg 75%
    18:00 +25°C° 0 mm 4 mps 753 mmHg 76%
    19:00 +23°C° 0 mm 4 mps 753 mmHg 78%
    20:00 +23°C° 0 mm 4 mps 754 mmHg 80%
    21:00 +23°C° 0 mm 4 mps 754 mmHg 82%
    22:00 +23°C° 0 mm 4 mps 754 mmHg 83%
    23:00 +23°C° 0 mm 4 mps 754 mmHg 83%

    16 December, Monday

    Time Temperature Precipitation Wind Pressure Humidity
    00:00 +23°C° 0 mm 4 mps 754 mmHg 84%
    01:00 +23°C° 0 mm 4 mps 754 mmHg 85%
    02:00 +23°C° 0 mm 4 mps 754 mmHg 86%
    03:00 +22°C° 0 mm 4 mps 754 mmHg 86%
    04:00 +22°C° 0.1 mm 3 mps 754 mmHg 86%
    05:00 +24°C° 0.1 mm 3 mps 754 mmHg 86%
    06:00 +24°C° 0.1 mm 3 mps 754 mmHg 86%
    07:00 +24°C° 0.2 mm 2 mps 755 mmHg 86%
    08:00 +24°C° 0.2 mm 2 mps 755 mmHg 87%
    09:00 +24°C° 0.2 mm 2 mps 756 mmHg 87%
    10:00 +25°C° 0.2 mm 3 mps 756 mmHg 78%
    11:00 +27°C° 0.2 mm 3 mps 756 mmHg 69%
    12:00 +28°C° 0.2 mm 4 mps 756 mmHg 60%
    13:00 +26°C° 0.1 mm 5 mps 756 mmHg 56%
    14:00 +23°C° 0.1 mm 5 mps 756 mmHg 51%
    15:00 +21°C° 0.1 mm 6 mps 756 mmHg 47%
    16:00 +20°C° 0 mm 6 mps 757 mmHg 46%
    17:00 +17°C° 0 mm 6 mps 758 mmHg 45%
    18:00 +16°C° 0 mm 6 mps 759 mmHg 45%
    19:00 +14°C° 0 mm 6 mps 760 mmHg 45%
    20:00 +13°C° 0 mm 6 mps 761 mmHg 45%
    21:00 +11°C° 0 mm 6 mps 761 mmHg 45%
    22:00 +10°C° 0 mm 6 mps 762 mmHg 45%
    23:00 +9°C° 0 mm 6 mps 763 mmHg 44%

    17 December, Tuesday

    Time Temperature Precipitation Wind Pressure Humidity
    00:00 +8°C° 0 mm 6 mps 763 mmHg 44%
    01:00 +8°C° 0 mm 6 mps 764 mmHg 44%
    02:00 +7°C° 0 mm 5 mps 764 mmHg 45%
    03:00 +7°C° 0 mm 5 mps 764 mmHg 46%
    04:00 +6°C° 0 mm 5 mps 764 mmHg 46%
    05:00 +6°C° 0 mm 5 mps 765 mmHg 47%
    06:00 +5°C° 0 mm 5 mps 765 mmHg 48%
    07:00 +6°C° 0 mm 5 mps 766 mmHg 47%
    08:00 +6°C° 0 mm 5 mps 766 mmHg 45%
    09:00 +6°C° 0 mm 5 mps 767 mmHg 44%
    10:00 +8°C° 0 mm 5 mps 767 mmHg 39%
    11:00 +9°C° 0 mm 5 mps 767 mmHg 34%
    12:00 +12°C° 0 mm 5 mps 768 mmHg 28%
    13:00 +13°C° 0 mm 5 mps 767 mmHg 27%
    14:00 +13°C° 0 mm 5 mps 767 mmHg 26%
    15:00 +14°C° 0 mm 5 mps 767 mmHg 25%
    16:00 +13°C° 0 mm 5 mps 767 mmHg 28%
    17:00 +12°C° 0 mm 5 mps 768 mmHg 30%
    18:00 +11°C° 0 mm 4 mps 768 mmHg 33%
    19:00 +10°C° 0 mm 4 mps 769 mmHg 35%
    20:00 +10°C° 0 mm 4 mps 769 mmHg 37%
    21:00 +8°C° 0 mm 4 mps 770 mmHg 39%
    22:00 +8°C° 0 mm 4 mps 770 mmHg 40%
    23:00 +7°C° 0 mm 4 mps 771 mmHg 41%

    18 December, Wednesday

    Time Temperature Precipitation Wind Pressure Humidity
    00:00 +7°C° 0 mm 4 mps 771 mmHg 42%
    01:00 +6°C° 0 mm 4 mps 771 mmHg 43%
    02:00 +6°C° 0 mm 4 mps 771 mmHg 44%
    03:00 +5°C° 0 mm 4 mps 771 mmHg 45%
    04:00 +5°C° 0 mm 4 mps 771 mmHg 46%
    05:00 +4°C° 0 mm 4 mps 772 mmHg 47%
    06:00 +4°C° 0 mm 4 mps 772 mmHg 48%
    07:00 +4°C° 0 mm 4 mps 773 mmHg 47%
    08:00 +4°C° 0 mm 4 mps 773 mmHg 45%
    09:00 +5°C° 0 mm 4 mps 774 mmHg 44%
    10:00 +6°C° 0 mm 4 mps 774 mmHg 39%
    11:00 +8°C° 0 mm 3 mps 773 mmHg 33%
    12:00 +9°C° 0 mm 3 mps 773 mmHg 28%
    13:00 +10°C° 0 mm 3 mps 772 mmHg 26%
    14:00 +10°C° 0 mm 3 mps 772 mmHg 25%
    15:00 +11°C° 0 mm 3 mps 771 mmHg 23%
    16:00 +10°C° 0 mm 3 mps 771 mmHg 25%
    17:00 +9°C° 0 mm 3 mps 771 mmHg 27%
    18:00 +8°C° 0 mm 3 mps 771 mmHg 29%
    19:00 +8°C° 0 mm 3 mps 771 mmHg 31%
    20:00 +7°C° 0 mm 3 mps 771 mmHg 32%
    21:00 +7°C° 0 mm 3 mps 772 mmHg 33%
    22:00 +6°C° 0 mm 2 mps 772 mmHg 34%
    23:00 +6°C° 0 mm 2 mps 772 mmHg 34%
    Show more